This is the latest recevied weather packets stored in our database for station/object PD2BVG. If no packets are shown the sender has not sent any weather packets the latest 10 day(s).
| Time | Temp. | Humidity | Pressure | Rain* | Wind** | Luminosity | Snow |
|---|---|---|---|---|---|---|---|
| 1777462313 | 16.67° C | 39% | 1025.2 hPa | 0 mm | - | 791 W/m² | - |
| 1777462253 | 16.67° C | 41% | 1025.3 hPa | 0 mm | - | 760 W/m² | - |
| 1777462194 | 16.67° C | 41% | 1025.3 hPa | 0 mm | - | 793 W/m² | - |
| 1777462132 | 16.67° C | 41% | 1025.3 hPa | 0 mm | - | 802 W/m² | - |
| 1777462074 | 16.67° C | 40% | 1025.2 hPa | 0 mm | - | 802 W/m² | - |
| 1777462012 | 16.67° C | 40% | 1025.3 hPa | 0 mm | - | 800 W/m² | - |
| 1777461952 | 16.67° C | 41% | 1025.3 hPa | 0 mm | - | 797 W/m² | - |
| 1777461892 | 16.67° C | 41% | 1025.3 hPa | 0 mm | - | 786 W/m² | - |
| 1777461830 | 16.67° C | 41% | 1025.4 hPa | 0 mm | - | 760 W/m² | - |
| 1777461771 | 16.67° C | 42% | 1025.4 hPa | 0 mm | - | 760 W/m² | - |
| 1777461711 | 16.67° C | 41% | 1025.3 hPa | 0 mm | - | 804 W/m² | - |
| 1777461650 | 16.67° C | 41% | 1025.4 hPa | 0 mm | - | 802 W/m² | - |
| 1777461590 | 16.67° C | 41% | 1025.4 hPa | 0 mm | - | 802 W/m² | - |
| 1777461530 | 16.67° C | 41% | 1025.4 hPa | 0 mm | - | 802 W/m² | - |
| 1777461470 | 16.67° C | 41% | 1025.3 hPa | 0 mm | - | 802 W/m² | - |
| 1777461411 | 16.67° C | 40% | 1025.3 hPa | 0 mm | - | 804 W/m² | - |
| 1777461351 | 16.67° C | 40% | 1025.3 hPa | 0 mm | - | 795 W/m² | - |
| 1777461290 | 16.67° C | 40% | 1025.5 hPa | 0 mm | - | 800 W/m² | - |
| 1777461233 | 16.67° C | 41% | 1025.5 hPa | 0 mm | - | 795 W/m² | - |
| 1777461171 | 16.67° C | 41% | 1025.4 hPa | 0 mm | - | 793 W/m² | - |
| 1777461113 | 16.67° C | 41% | 1025.4 hPa | 0 mm | - | 798 W/m² | - |
| 1777461050 | 16.67° C | 41% | 1025.5 hPa | 0 mm | - | 791 W/m² | - |
| 1777460932 | 16.67° C | 40% | 1025.5 hPa | 0 mm | - | 779 W/m² | - |
| 1777460872 | 16.67° C | 41% | 1025.6 hPa | 0 mm | - | 770 W/m² | - |
| 1777460813 | 16.67° C | 40% | 1025.6 hPa | 0 mm | - | 784 W/m² | - |
* Rain latest hour (hover to see other rain measurements)
** Current wind speed in m/s (hover to see current wind gust speed)